Location: Newark
(48.9233°N, 29.3439°E)
Time: 00:23:04
(UTC+00:00)

Envisat - Pass Details

Date: 29 September 2019
Orbit: 764 x 766 km, 98.1° (Epoch: 19 October)

Event Time Altitude Azimuth Distance (km) Brightness Sun altitude
Rises 17:09:34 0° 201° (SSW) 3,221 6.3 -14.4°
Reaches altitude 10° 17:12:17 10° 215° (SW) 2,300 5.7 -14.8°
Maximum altitude 17:16:21 24° 268° (W) 1,556 5.5 -15.4°
Drops below altitude 10° 17:20:26 10° 322° (NW) 2,313 6.3 -16.1°
Sets 17:23:11 0° 336° (NNW) 3,245 6.8 -16.5°
